Miscellaneous Local Product
Issued by NWS Hastings, NE

Home | Current Version | Previous Version | Text Only | Print | Product List | Glossary On
Versions: 1 2 3 4 5 6 7 8 9 10 11 12 13 14 15 16 17 18 19 20 21 22 23 24 25 26 27 28 29 30 31 32 33 34 35 36 37 38 39 40 41 42 43 44 45 46 47 48 49 50
000
AXUS43 KGID 211410
MISGRI

GID CWA HOURLY WEATHER ROUNDUP
NATIONAL WEATHER SERVICE HASTINGS NE
900 AM CDT SUN SEP 21 2014

NOTE: "FAIR" INDICATES FEW OR NO CLOUDS BELOW 12,000 FEET WITH NO
SIGNIFICANT WEATHER AND/OR OBSTRUCTIONS TO VISIBILITY.

...SOUTH CENTRAL NEBRASKA...

CITY           SKY/WX    TMP DP  RH WIND       PRES   REMARKS
GRAND ISLAND   SUNNY     56  46  69 W5        30.28R
HASTINGS       SUNNY     57  44  62 N7        30.28R
KEARNEY        SUNNY     54  43  66 NW7       30.30R
ORD            SUNNY     51  44  77 NW7       30.29R
YORK           SUNNY     55  48  76 N6        30.26R
AURORA         SUNNY     56  44  65 N7        30.27R
LEXINGTON      SUNNY     52  48  86 NW3       30.32R
HOLDREGE       MOSUNNY   51  45  80 CALM      30.30R
HEBRON         SUNNY     59  46  62 N8        30.25R

...NEBRASKA PANHANDLE...

CITY           SKY/WX    TMP DP  RH WIND       PRES   REMARKS
CHADRON        SUNNY     45  40  82 SW3       30.37R
ALLIANCE       CLOUDY    50  43  77 CALM      30.37R
SCOTTSBLUFF    SUNNY     54  42  64 CALM      30.38R
SIDNEY         CLOUDY    57  43  59 CALM      30.40R

...WESTERN AND NORTH CENTRAL NEBRASKA...

CITY           SKY/WX    TMP DP  RH WIND       PRES   REMARKS
VALENTINE      SUNNY     51  39  63 NW6       30.32R
AINSWORTH      SUNNY     51  41  68 NW6       30.31R
ONEILL         SUNNY     54  45  70 NW8       30.28R
BROKEN BOW     SUNNY     56  41  57 N12       30.30R
IMPERIAL       CLOUDY    56  45  66 N5        30.36R
NORTH PLATTE   PTSUNNY   53  46  77 CALM      30.34R
MCCOOK         PTSUNNY   57  45  64 CALM      30.33R

...EASTERN NEBRASKA...

CITY           SKY/WX    TMP DP  RH WIND       PRES   REMARKS
NORFOLK        SUNNY     56  45  66 NW9       30.24R
SO SIOUX CITY  SUNNY     58  46  64 NW10      30.21R
TEKAMAH        SUNNY     60  46  59 NW14G21   30.20R
COLUMBUS       SUNNY     55  46  71 N8        30.26R
ALBION         SUNNY     53  44  72 NW7       30.27R
OMAHA EPPLEY   SUNNY     60  48  64 NW7       30.20R
OFFUTT AFB     SUNNY     59  52  78 W12       30.19R
MILLARD        SUNNY     59  47  64 NW9       30.21R
LINCOLN        SUNNY     60  47  61 N12       30.23R
NEBRASKA CITY    N/A     61  41  47 N13       30.19R
BEATRICE       SUNNY     58  50  74 NW7       30.22R
FALLS CITY     SUNNY     60  54  80 NW8       30.18R

...NORTHERN KANSAS...

CITY           SKY/WX    TMP DP  RH WIND       PRES   REMARKS
GOODLAND       PTSUNNY   55  48  77 NW5       30.36R
HILL CITY      MOSUNNY   62  45  53 N10       30.28R
NORTON         SUNNY     57  37  47 N13       30.30R
PHILLIPSBURG   MOSUNNY   61  43  51 N10       30.28
SMITH CENTER   SUNNY     59  45  58 N9        30.27S
BELOIT         SUNNY     61  52  72 CALM      30.25R
HAYS           SUNNY     61  46  59 N9        30.27R
RUSSELL        SUNNY     62  51  67 N7        30.25R
CONCORDIA      SUNNY     60  51  72 NW5       30.24R
SALINA         MOSUNNY   64  55  72 N5        30.23R
TOPEKA         SUNNY     64  59  83 NW5       30.19R



USA.gov is the U.S. government's official web portal to all federal, state and local government web resources and services.